TimeEDT,TemperatureF,Dew PointF,Humidity,Sea Level PressureIn,VisibilityMPH,Wind Direction,Wind SpeedMPH,Gust SpeedMPH,PrecipitationIn,Events,Conditions,WindDirDegrees,DateUTC
12:51 AM,57.0,55.9,96,30.21,10.0,Calm,Calm,-,N/A,,Clear,0,2013-06-22 04:51:00
1:51 AM,55.9,55.0,97,30.22,10.0,Calm,Calm,-,N/A,,Clear,0,2013-06-22 05:51:00
2:51 AM,55.0,54.0,96,30.22,10.0,Calm,Calm,-,N/A,,Clear,0,2013-06-22 06:51:00
3:51 AM,54.0,52.0,93,30.21,10.0,Calm,Calm,-,N/A,,Clear,0,2013-06-22 07:51:00
4:51 AM,54.0,53.1,97,30.20,10.0,Calm,Calm,-,N/A,,Clear,0,2013-06-22 08:51:00
5:51 AM,54.0,53.1,97,30.21,10.0,Calm,Calm,-,N/A,,Clear,0,2013-06-22 09:51:00
6:51 AM,57.9,55.9,93,30.20,10.0,Calm,Calm,-,N/A,,Clear,0,2013-06-22 10:51:00
7:51 AM,64.0,57.9,80,30.20,10.0,Calm,Calm,-,N/A,,Clear,0,2013-06-22 11:51:00
8:51 AM,66.9,57.9,73,30.19,10.0,Calm,Calm,-,N/A,,Clear,0,2013-06-22 12:51:00
9:51 AM,70.0,60.1,71,30.19,10.0,South,3.5,-,N/A,,Clear,180,2013-06-22 13:51:00
10:51 AM,73.9,62.1,66,30.20,10.0,Calm,Calm,-,N/A,,Mostly Cloudy,0,2013-06-22 14:51:00
11:51 AM,79.0,64.0,60,30.19,10.0,WSW,6.9,-,N/A,,Mostly Cloudy,250,2013-06-22 15:51:00
12:51 PM,82.9,63.0,51,30.16,10.0,South,10.4,16.1,N/A,,Partly Cloudy,190,2013-06-22 16:51:00
1:51 PM,84.9,61.0,44,30.15,10.0,WSW,12.7,17.3,N/A,,Mostly Cloudy,240,2013-06-22 17:51:00
2:51 PM,84.9,60.1,43,30.14,10.0,West,12.7,19.6,N/A,,Partly Cloudy,280,2013-06-22 18:51:00
3:51 PM,84.0,60.1,44,30.12,10.0,West,6.9,16.1,N/A,,Clear,270,2013-06-22 19:51:00
4:51 PM,82.0,59.0,45,30.11,10.0,WSW,6.9,-,N/A,,Mostly Cloudy,240,2013-06-22 20:51:00
5:51 PM,82.0,60.1,47,30.10,10.0,Calm,Calm,-,N/A,,Overcast,0,2013-06-22 21:51:00
6:51 PM,81.0,62.1,52,30.10,10.0,South,3.5,-,N/A,,Mostly Cloudy,190,2013-06-22 22:51:00
7:51 PM,77.0,64.0,64,30.09,10.0,SSE,3.5,-,N/A,,Overcast,150,2013-06-22 23:51:00
8:51 PM,73.9,64.0,71,30.10,10.0,SSE,4.6,-,N/A,,Partly Cloudy,160,2013-06-23 00:51:00
9:51 PM,73.9,63.0,68,30.12,10.0,Calm,Calm,-,N/A,,Scattered Clouds,0,2013-06-23 01:51:00
10:51 PM,72.0,62.1,71,30.13,10.0,SSE,5.8,-,N/A,,Mostly Cloudy,160,2013-06-23 02:51:00
11:51 PM,70.0,63.0,78,30.14,9.0,Calm,Calm,-,0.00,Rain,Light Rain,0,2013-06-23 03:51:00